Simultaneous Nadir Overpasses (SNOs) Predictions

Prediction of SNOs between NOAA-19 and NPP Satellite Orbit:

Table of predicted SNOs for the next 14.0 days since TLE Epoch: 1/29/2016
Index Date (NOAA-19) Time (NOAA-19) Lat,Lon (NOAA-19) SZA (NOAA-19 ) Date (NPP) Time (NPP) Lat,Lon (NPP) SZA (NPP ) Distance(km) Time Diff (sec)
1 02/07/2016 08:56:49 81.02, -7.59 100.38 02/07/2016 08:57:58 81.02, -7.41 100.32 3.19 69
2 02/07/2016 09:47:46 -81.02, 159.91 79.66 02/07/2016 09:48:43 -81.02, 159.79 79.68 2.14 57
3 02/07/2016 10:38:51 81.02, -33.01 100.35 02/07/2016 10:39:28 81.02, -32.85 100.31 2.65 37
4 02/07/2016 11:29:48 -81.02, 134.49 79.70 02/07/2016 11:30:13 -81.03, 134.35 79.69 2.53 25
5 02/07/2016 12:20:53 81.02, -58.42 100.31 02/07/2016 12:20:58 81.02, -58.29 100.30 2.12 5
6 02/07/2016
